Change the Weather History Date:

Sunday, March 25, 2012

  Actual Average Record
Temperature  
Mean Temperature 43 °F 45 °F  
Max Temperature 60 °F 57 °F 73 °F (1960)
Min Temperature 26 °F 33 °F 15 °F (1996)
Degree Days  
Heating Degree Days 22 20  
Month to date heating degree days 644 615  
Since 1 July heating degree days 5714 5476  
Cooling Degree Days 0 0  
Month to date cooling degree days 0 0  
Year to date cooling degree days 0 0  
Moisture  
Dew Point 24 °F    
Average Humidity 52    
Maximum Humidity 75    
Minimum Humidity 28    
Precipitation  
Precipitation 0.00 in 0.04 in 0.24 in (2004)
Month to date precipitation 1.07 0.93  
Year to date precipitation 3.30 3.92  
Sea Level Pressure  
Sea Level Pressure 29.79 in    
Wind  
Wind Speed 13 mph (NNW)    
Max Wind Speed 22 mph    
Max Gust Speed 30 mph    
Visibility 10 miles    
Events      
T = Trace of Precipitation, MM = Missing Value Source: NWS Daily Summary

Daily Weather History Graph

Daily Weather History Graph

Search for Another Location

Airport or City:

Trip Planner

Search our weather history database for the weather conditions in past years. The results will help you decide how hot, cold, wet, or windy it might be!

Date:

Astronomy

Mar. 25, 2012 Rise Set
Actual Time 6:49 AM PDT 7:19 PM PDT
Civil Twilight 6:17 AM PDT 7:50 PM PDT
Nautical Twilight 5:40 AM PDT 8:28 PM PDT
Astronomical Twilight 5:01 AM PDT 9:07 PM PDT
Moon 7:46 AM PDT (3/25) 11:00 PM PDT (3/25)
Length of Visible Light 13h 32m
Length of Day
12h 29m
Waxing Crescent, 9% of the Moon is Illuminated
Mar 25
Waxing Crescent
Mar 30
First Quarter
Apr 6
Full
Apr 13
Last Quarter
Apr 21
New

Hourly Weather History & Observations

Time (PDT) Temp. Windchill Dew Point Humidity Pressure Visibility Wind Dir Wind Speed Gust Speed Precip Events Conditions
12:53 AM 33.1 °F 27.7 °F 21.0 °F 61% 29.97 in 10.0 mi North 5.8 mph - N/A   Clear
1:53 AM 32.0 °F 27.5 °F 21.0 °F 64% 29.97 in 10.0 mi NNW 4.6 mph - N/A   Clear
2:53 AM 27.0 °F - 19.9 °F 75% 29.97 in 10.0 mi Calm Calm - N/A   Clear
3:53 AM 30.0 °F 21.7 °F 21.9 °F 72% 29.94 in 10.0 mi NW 9.2 mph - N/A   Clear
4:53 AM 36.0 °F 28.5 °F 23.0 °F 59% 29.94 in 10.0 mi NNW 10.4 mph - N/A   Clear
5:53 AM 36.0 °F 28.0 °F 23.0 °F 59% 29.93 in 10.0 mi NNW 11.5 mph - N/A   Clear
6:53 AM 35.1 °F 25.5 °F 23.0 °F 61% 29.91 in 10.0 mi North 15.0 mph - N/A   Clear
7:53 AM 36.0 °F 27.1 °F 23.0 °F 59% 29.90 in 10.0 mi NNW 13.8 mph - N/A   Clear
8:53 AM 39.0 °F 30.3 °F 24.1 °F 55% 29.88 in 10.0 mi NNW 16.1 mph 20.7 mph N/A   Clear
9:53 AM 39.9 °F 31.1 °F 24.1 °F 53% 29.85 in 10.0 mi NNW 17.3 mph - N/A   Clear
10:53 AM 42.1 °F 33.6 °F 24.1 °F 49% 29.84 in 10.0 mi NNW 18.4 mph - N/A   Overcast
11:53 AM 46.0 °F 39.0 °F 24.1 °F 42% 29.79 in 10.0 mi NNW 17.3 mph 27.6 mph N/A   Overcast
12:53 PM 52.0 °F - 25.0 °F 35% 29.76 in 10.0 mi North 16.1 mph 25.3 mph N/A   Partly Cloudy
1:53 PM 55.9 °F - 25.0 °F 30% 29.71 in 10.0 mi NNW 20.7 mph 29.9 mph N/A   Clear
2:53 PM 57.0 °F - 25.0 °F 29% 29.69 in 10.0 mi North 17.3 mph 25.3 mph N/A   Clear
3:53 PM 59.0 °F - 26.1 °F 28% 29.67 in 10.0 mi NNW 12.7 mph 24.2 mph N/A   Mostly Cloudy
4:53 PM 57.9 °F - 26.1 °F 30% 29.66 in 10.0 mi NNW 12.7 mph 19.6 mph N/A   Partly Cloudy
5:53 PM 55.0 °F - 24.1 °F 30% 29.64 in 10.0 mi North 19.6 mph 28.8 mph N/A   Clear
6:53 PM 50.0 °F - 24.1 °F 36% 29.66 in 10.0 mi NW 9.2 mph - N/A   Partly Cloudy
7:53 PM 46.9 °F - 25.0 °F 42% 29.68 in 10.0 mi NW 11.5 mph - N/A   Clear
8:53 PM 48.9 °F - 25.0 °F 39% 29.66 in 10.0 mi NNW 13.8 mph - N/A   Clear
9:53 PM 46.0 °F 41.0 °F 25.0 °F 44% 29.67 in 10.0 mi North 10.4 mph - N/A   Clear
10:53 PM 45.0 °F 38.9 °F 25.0 °F 46% 29.65 in 10.0 mi NNW 12.7 mph - N/A   Clear
11:53 PM 44.1 °F 38.1 °F 26.1 °F 49% 29.65 in 10.0 mi North 11.5 mph - N/A   Clear